Home   Weather   38°50'N, 104°51'W   Past weeks
Flag for USA

Past Weather in 38°50'N, 104°51'W, USA — Yesterday and Last 2 Weeks

Now
80 °F

Passing clouds.


Feels Like: 79 °F
Forecast: 78 / 55 °F
Wind: 22 mph from South

Location: City Of Colorado Springs Municipal Airport

Current Time: Sep 18, 2019 at 4:14:21 pm

Latest Report: Sep 18, 2019 at 2:54 pm


Visibility: 10 mi

Pressure: 29.84 "Hg

Humidity: 19%

Dew Point: 34 °F

Location of 38°50'N, 104°51'WLocation

Past Weather in 38°50'N, 104°51'W — Graph

°F

38°50'N, 104°51'W Temperature Yesterday

Maximum temperature yesterday: 83 °F (at 2:54 pm)
Minimum temperature yesterday: 60 °F (at 1:54 am)
Average temperature yesterday: 72 °F

High & Low Weather Summary for the Past Weeks

 TemperatureHumidityPressure
High93 °F (Sep 5, 11:54 am)90% (Sep 6, 8:35 pm)30.40 "Hg (Sep 6, 8:35 pm)
Low50 °F (Sep 12, 6:54 am)6% (Sep 14, 5:54 pm)29.68 "Hg (Sep 11, 4:54 pm)
Average70 °F42%29.94 "Hg
* Reported Sep 3 2:54 pm — Sep 18 2:54 pm, 38°50'N, 104°51'W. Weather by CustomWeather, © 2019

Note: Actual official high and low records may vary slightly from our data, if they occured in-between our weather recording intervals... More about our weather records

Advertising

38°50'N, 104°51'W Weather History for the Previous 24 Hours

Scroll right to see more
 ConditionsComfort  
Time TempWeatherWind HumidityBarometerVisibility
2:54 pm
Wed, Sep 18
80 °FPassing clouds.22 mph19%29.84 "Hg10 mi
1:54 pm77 °FPassing clouds.18 mph22%29.87 "Hg10 mi
12:54 pm75 °FPassing clouds.17 mph26%29.90 "Hg10 mi
11:54 am73 °FPassing clouds.16 mph29%29.95 "Hg10 mi
10:54 am71 °FPassing clouds.13 mph29%29.96 "Hg10 mi
9:54 am68 °FPassing clouds.12 mph33%29.97 "Hg10 mi
8:54 am65 °FPassing clouds.13 mph39%29.98 "Hg10 mi
7:54 am64 °FPassing clouds.3 mph38%29.95 "Hg10 mi
6:54 am53 °FPassing clouds.8 mph59%29.95 "Hg10 mi
5:54 am59 °FPassing clouds.5 mph48%29.89 "Hg10 mi
4:54 am61 °FClear.6 mph46%29.87 "Hg10 mi
3:54 am60 °FPassing clouds.15 mph47%29.85 "Hg10 mi
2:54 am61 °FClear.14 mph36%29.83 "Hg10 mi
1:54 am64 °FClear.13 mph34%29.81 "Hg10 mi
12:54 am66 °FClear.9 mph31%29.80 "Hg10 mi
11:54 pm
Tue, Sep 17
63 °FClear.8 mph37%29.82 "Hg10 mi
10:54 pm66 °FClear.7 mph34%29.82 "Hg10 mi
9:54 pm69 °FClear.3 mph33%29.80 "Hg10 mi
8:54 pm70 °FPassing clouds.6 mph31%29.78 "Hg10 mi
7:54 pm73 °FPassing clouds.7 mph28%29.76 "Hg10 mi
6:54 pm76 °FPassing clouds.14 mph24%29.74 "Hg10 mi
5:54 pm80 °FPassing clouds.16 mph20%29.71 "Hg10 mi
4:54 pm83 °FPassing clouds.24 mph18%29.71 "Hg10 mi
4:08 pm80 °FBroken clouds.23 mph20%29.99 "Hg10 mi
Weather by CustomWeather, © 2019

See weather overview